EW2295 Weather Reports


time (UTC)temp
F
wind
direction
speed
knots
gust
knots
rain 1hr
in
rain 24hr
in
rain mn
in
humidity
%
barometer
mb
20230208165044 35 0 0.0 0.0 0.00 0.00 0.00 59 1034.7
20230208164600 35 0 0.0 0.0 0.00 0.00 0.00 56 1034.7
20230208164044 37 0 0.0 0.0 0.00 0.00 0.00 52 1034.8
20230208163542 37 0 0.0 0.0 0.00 0.00 0.00 52 1034.9
20230208163139 38 0 0.0 0.0 0.00 0.00 0.00 48 1034.7
20230208162544 39 0 0.0 0.0 0.00 0.00 0.00 48 1034.9
20230208162046 39 0 0.0 0.0 0.00 0.00 0.00 46 1034.8
20230208161602 39 0 0.0 0.0 0.00 0.00 0.00 46 1035.0
20230208161045 39 0 0.0 0.0 0.00 0.00 0.00 46 1035.0
20230208160545 40 0 0.0 0.0 0.00 0.00 0.00 46 1035.1
20230208160101 40 0 0.0 0.0 0.00 0.00 0.00 46 1035.1
20230208155544 40 0 0.0 1.7 0.00 0.00 0.00 46 1035.1
20230208155045 41 0 0.0 3.5 0.00 0.00 0.00 45 1035.4
20230208154557 41 0 0.0 3.5 0.00 0.00 0.00 46 1035.3
20230208154045 41 0 0.0 2.6 0.00 0.00 0.00 47 1035.3
20230208153544 41 0 0.0 2.6 0.00 0.00 0.00 47 1035.3
20230208153055 42 0 0.0 1.7 0.00 0.00 0.00 46 1035.3
20230208152544 42 0 0.0 1.7 0.00 0.00 0.00 47 1035.3
20230208152045 42 0 0.0 2.6 0.00 0.00 0.00 47 1035.3
20230208151549 42 0 0.0 2.6 0.00 0.00 0.00 47 1035.4
20230208151045 43 0 0.0 2.6 0.00 0.00 0.00 45 1035.4
20230208150543 43 336 0.0 0.0 0.00 0.00 0.00 45 1035.4
20230208150054 43 0 0.0 0.0 0.00 0.00 0.00 45 1035.4
20230208145541 43 0 0.0 1.7 0.00 0.00 0.00 46 1035.5
20230208145045 43 0 0.0 3.5 0.00 0.00 0.00 45 1035.5
20230208144553 43 0 0.0 3.5 0.00 0.00 0.00 44 1035.5
20230208144044 43 336 0.0 3.5 0.00 0.00 0.00 42 1035.6
20230208143541 43 0 0.0 3.5 0.00 0.00 0.00 42 1035.7
20230208143052 43 0 0.0 3.5 0.00 0.00 0.00 46 1035.7
20230208142544 42 0 0.0 3.5 0.00 0.00 0.00 45 1035.8
20230208142044 42 0 0.0 1.7 0.00 0.00 0.00 45 1035.8
20230208141557 42 0 0.0 1.7 0.00 0.00 0.00 44 1035.9
20230208141044 42 0 0.0 3.5 0.00 0.00 0.00 44 1036.0
20230208140544 43 0 0.0 3.5 0.00 0.00 0.00 45 1036.2
20230208140100 43 335 0.9 4.3 0.00 0.00 0.00 44 1036.2
20230208135546 43 0 0.0 4.3 0.00 0.00 0.00 44 1036.3
20230208135046 42 334 0.0 3.5 0.00 0.00 0.00 44 1036.3
20230208134610 43 0 0.0 3.5 0.00 0.00 0.00 44 1036.5
20230208134046 42 0 0.0 3.5 0.00 0.00 0.00 44 1036.4
20230208133545 42 0 0.0 3.5 0.00 0.00 0.00 45 1036.6
20230208133107 42 332 0.0 3.5 0.00 0.00 0.00 44 1036.7
20230208132545 42 332 0.0 3.5 0.00 0.00 0.00 46 1036.7
20230208132045 42 0 0.0 3.5 0.00 0.00 0.00 47 1036.8
20230208131558 42 0 0.0 3.5 0.00 0.00 0.00 46 1036.8
20230208131046 42 340 0.0 2.6 0.00 0.00 0.00 47 1036.9
20230208130544 42 0 0.0 3.5 0.00 0.00 0.00 48 1036.9
20230208130101 42 341 0.0 3.5 0.00 0.00 0.00 48 1037.0
20230208125543 42 0 0.0 3.5 0.00 0.00 0.00 47 1037.0
20230208125044 42 0 0.9 3.5 0.00 0.00 0.00 49 1037.1
20230208124557 42 0 0.0 3.5 0.00 0.00 0.00 49 1037.1
20230208124044 42 0 0.0 1.7 0.00 0.00 0.00 50 1037.1
20230208123546 42 0 0.0 3.5 0.00 0.00 0.00 48 1037.2
20230208123058 42 0 0.0 3.5 0.00 0.00 0.00 44 1037.3
20230208122544 43 0 0.0 2.6 0.00 0.00 0.00 44 1037.3
20230208122044 43 0 0.0 0.0 0.00 0.00 0.00 39 1037.3
20230208121604 43 0 0.0 0.0 0.00 0.00 0.00 40 1037.5
20230208121047 42 0 0.0 0.0 0.00 0.00 0.00 39 1037.4
20230208120543 42 0 0.0 0.0 0.00 0.00 0.00 38 1037.5
20230208120059 42 0 0.0 0.0 0.00 0.00 0.00 39 1037.6
20230208115547 42 0 0.0 0.0 0.00 0.00 0.00 38 1037.8
20230208115044 42 0 0.0 0.0 0.00 0.00 0.00 39 1037.7
20230208114558 42 0 0.0 0.0 0.00 0.00 0.00 40 1037.6
20230208114044 41 0 0.0 0.0 0.00 0.00 0.00 38 1037.6
20230208113544 41 0 0.0 0.0 0.00 0.00 0.00 39 1037.7
20230208113058 41 0 0.0 0.0 0.00 0.00 0.00 40 1037.8
20230208112544 41 0 0.0 0.0 0.00 0.00 0.00 40 1038.1
20230208112043 41 0 0.0 0.0 0.00 0.00 0.00 46 1038.1
20230208111555 40 0 0.0 0.0 0.00 0.00 0.00 44 1038.2
20230208111044 40 0 0.0 0.0 0.00 0.00 0.00 45 1038.3
20230208110543 40 0 0.0 0.0 0.00 0.00 0.00 46 1038.3
20230208110057 40 0 0.0 0.0 0.00 0.00 0.00 49 1038.5
20230208105546 39 0 0.0 0.0 0.00 0.00 0.00 53 1038.4
20230208105045 39 0 0.0 0.0 0.00 0.00 0.00 54 1038.5
20230208104558 39 0 0.0 0.0 0.00 0.00 0.00 53 1038.5
20230208104046 38 0 0.0 0.0 0.00 0.00 0.00 55 1038.5
20230208103548 38 0 0.0 0.0 0.00 0.00 0.00 54 1038.5
20230208103055 38 0 0.0 0.0 0.00 0.00 0.00 56 1038.5
20230208102548 38 0 0.0 0.0 0.00 0.00 0.00 56 1038.6
20230208102044 37 0 0.0 0.0 0.00 0.00 0.00 56 1038.6
20230208101552 37 0 0.0 0.0 0.00 0.00 0.00 57 1038.6
20230208101043 36 0 0.0 3.5 0.00 0.00 0.00 59 1038.6
20230208100544 36 0 0.0 3.5 0.00 0.00 0.00 58 1038.5
20230208100058 36 0 0.9 3.5 0.00 0.00 0.00 58 1038.5
20230208095544 36 0 0.0 3.5 0.00 0.00 0.00 60 1038.4
20230208095046 35 0 0.0 0.0 0.00 0.00 0.00 61 1038.5
20230208094559 35 0 0.0 0.0 0.00 0.00 0.00 63 1038.5
20230208094046 34 0 0.0 0.0 0.00 0.00 0.00 67 1038.6
20230208093546 34 0 0.0 0.0 0.00 0.00 0.00 67 1038.6
20230208093056 33 0 0.0 0.0 0.00 0.00 0.00 72 1038.9
20230208092549 32 0 0.0 0.0 0.00 0.00 0.00 78 1038.7
20230208092046 31 0 0.0 0.0 0.00 0.00 0.00 82 1038.7
20230208091601 30 0 0.0 0.0 0.00 0.00 0.00 85 1038.7
20230208091045 30 0 0.0 0.0 0.00 0.00 0.00 87 1038.7
20230208090546 28 0 0.0 0.0 0.00 0.00 0.00 90 1038.7
20230208090056 27 0 0.0 0.0 0.00 0.00 0.00 91 1038.6
20230208085546 27 0 0.0 0.0 0.00 0.00 0.00 91 1038.9
20230208085043 26 0 0.0 0.0 0.00 0.00 0.00 92 1038.8
20230208084556 26 0 0.0 0.0 0.00 0.00 0.00 92 1038.9
20230208084046 26 0 0.0 0.0 0.00 0.00 0.00 92 1038.9
20230208083546 26 0 0.0 0.0 0.00 0.00 0.00 92 1038.9
20230208083051 25 0 0.0 0.0 0.00 0.00 0.00 92 1039.0
20230208082550 25 0 0.0 0.0 0.00 0.00 0.00 92 1039.0
20230208082046 25 0 0.0 0.0 0.00 0.00 0.00 92 1038.9
20230208081555 25 0 0.0 0.0 0.00 0.00 0.00 92 1038.9
20230208081045 25 0 0.0 0.0 0.00 0.00 0.00 93 1038.9
20230208080545 24 0 0.0 0.0 0.00 0.00 0.00 93 1038.9
20230208080102 24 0 0.0 0.0 0.00 0.00 0.00 93 1038.9
20230208075543 24 0 0.0 0.0 0.00 0.00 0.00 93 1039.0
20230208075043 24 0 0.0 0.0 0.00 0.00 0.00 93 1038.9
20230208074555 24 0 0.0 0.0 0.00 0.00 0.00 93 1038.9
20230208074047 24 0 0.0 0.0 0.00 0.00 0.00 93 1038.9
20230208073545 23 0 0.0 0.0 0.00 0.00 0.00 93 1039.0
20230208073105 23 0 0.0 0.0 0.00 0.00 0.00 93 1039.0
20230208072544 23 0 0.0 0.0 0.00 0.00 0.00 93 1039.0
20230208072044 23 0 0.0 0.0 0.00 0.00 0.00 93 1038.9
20230208071605 23 0 0.0 0.0 0.00 0.00 0.00 93 1039.0
20230208071047 23 0 0.0 0.0 0.00 0.00 0.00 93 1039.1
20230208070544 23 0 0.0 0.0 0.00 0.00 0.00 93 1039.0
20230208070058 23 0 0.0 0.0 0.00 0.00 0.00 93 1039.0
20230208065545 23 0 0.0 0.0 0.00 0.00 0.00 93 1039.0
20230208065046 23 0 0.0 0.0 0.00 0.00 0.00 93 1039.0
20230208064638 23 0 0.0 0.0 0.00 0.00 0.00 93 1039.2
20230208064043 23 0 0.0 0.0 0.00 0.00 0.00 93 1039.1
20230208063546 23 0 0.0 0.0 0.00 0.00 0.00 93 1039.2
20230208063111 23 0 0.0 0.0 0.00 0.00 0.00 93 1039.3
20230208062544 23 0 0.0 0.0 0.00 0.00 0.00 92 1039.3
20230208062048 23 0 0.0 0.0 0.00 0.00 0.00 92 1039.2
20230208061556 23 0 0.0 0.0 0.00 0.00 0.00 92 1039.3
20230208061043 23 0 0.0 0.0 0.00 0.00 0.00 92 1039.2
20230208060545 23 0 0.0 0.0 0.00 0.00 0.00 93 1039.2
20230208060117 23 0 0.0 0.0 0.00 0.00 0.00 92 1039.3
20230208055544 23 0 0.0 0.0 0.00 0.00 0.00 92 1039.3
20230208055046 23 0 0.0 0.0 0.00 0.00 0.00 92 1039.1
20230208054559 23 0 0.0 0.0 0.00 0.00 0.00 92 1039.1
20230208054045 23 0 0.0 0.0 0.00 0.00 0.00 92 1039.0
20230208053546 23 0 0.0 0.0 0.00 0.00 0.00 92 1039.1
20230208053107 24 0 0.0 0.0 0.00 0.00 0.00 92 1039.2
20230208052546 24 0 0.0 0.0 0.00 0.00 0.00 92 1039.1
20230208052045 24 0 0.0 0.0 0.00 0.00 0.00 92 1039.2
20230208051628 24 0 0.0 0.0 0.00 0.00 0.00 92 1039.1
20230208051044 24 0 0.0 0.0 0.00 0.00 0.00 92 1039.1
20230208050544 24 0 0.0 0.0 0.00 0.00 0.00 92 1038.9
20230208050102 24 0 0.0 0.0 0.00 0.00 0.00 92 1039.0
20230208045543 24 0 0.0 0.0 0.00 0.00 0.00 92 1039.0
20230208045048 24 0 0.0 0.0 0.00 0.00 0.00 92 1038.8
20230208044559 25 0 0.0 0.0 0.00 0.00 0.00 92 1038.9
20230208044044 25 0 0.0 0.0 0.00 0.00 0.00 92 1038.9
20230208043550 24 0 0.0 0.0 0.00 0.00 0.00 92 1038.9
20230208043103 24 0 0.0 0.0 0.00 0.00 0.00 92 1038.7
20230208042545 24 0 0.0 0.0 0.00 0.00 0.00 93 1038.7
20230208042044 24 0 0.0 0.0 0.00 0.00 0.00 92 1038.6
20230208041607 24 0 0.0 0.0 0.00 0.00 0.00 93 1038.7
20230208041047 24 0 0.0 0.0 0.00 0.00 0.00 93 1038.8
20230208040544 24 0 0.0 0.0 0.00 0.00 0.00 93 1038.8
20230208040054 24 0 0.0 0.0 0.00 0.00 0.00 93 1038.7
20230208035544 24 0 0.0 0.0 0.00 0.00 0.00 93 1038.8
20230208035043 24 0 0.0 0.0 0.00 0.00 0.00 93 1038.7
20230208034605 24 0 0.0 0.0 0.00 0.00 0.00 93 1038.8
20230208034043 25 0 0.0 0.0 0.00 0.00 0.00 93 1038.8
20230208033542 25 0 0.0 0.0 0.00 0.00 0.00 93 1038.8
20230208033056 25 0 0.0 0.0 0.00 0.00 0.00 93 1038.8
20230208032543 25 0 0.0 0.0 0.00 0.00 0.00 93 1038.7
20230208032044 25 0 0.0 0.0 0.00 0.00 0.00 94 1038.8
20230208031606 25 0 0.0 0.0 0.00 0.00 0.00 94 1038.8
20230208031043 24 0 0.0 0.0 0.00 0.00 0.00 94 1038.9
20230208030543 24 0 0.0 0.0 0.00 0.00 0.00 94 1038.9
20230208030101 24 0 0.0 0.0 0.00 0.00 0.00 94 1038.8
20230208025543 24 0 0.0 0.0 0.00 0.00 0.00 94 1038.9
20230208025045 24 0 0.0 0.0 0.00 0.00 0.00 94 1039.0
20230208024555 24 0 0.0 0.0 0.00 0.00 0.00 94 1038.9
20230208024047 24 0 0.0 0.0 0.00 0.00 0.00 94 1038.9
20230208023550 24 0 0.0 0.0 0.00 0.00 0.00 94 1039.0
20230208023048 24 0 0.0 0.0 0.00 0.00 0.00 94 1039.0
20230208022544 24 0 0.0 0.0 0.00 0.00 0.00 94 1039.2
20230208022048 24 0 0.0 0.0 0.00 0.00 0.00 94 1039.1
20230208021559 24 0 0.0 0.0 0.00 0.00 0.00 94 1039.0
20230208021046 24 0 0.0 0.0 0.00 0.00 0.00 94 1039.1
20230208020542 24 0 0.0 0.0 0.00 0.00 0.00 94 1039.1
20230208020056 24 0 0.0 0.0 0.00 0.00 0.00 94 1039.1
20230208015543 25 0 0.0 0.0 0.00 0.00 0.00 94 1039.1
20230208015043 25 0 0.0 0.0 0.00 0.00 0.00 94 1039.2
20230208014553 25 0 0.0 0.0 0.00 0.00 0.00 94 1039.2
20230208014045 25 0 0.0 0.0 0.00 0.00 0.00 94 1039.3
20230208013544 25 0 0.0 0.0 0.00 0.00 0.00 94 1039.3
20230208013125 25 0 0.0 0.0 0.00 0.00 0.00 94 1039.3
20230208012543 25 0 0.0 0.0 0.00 0.00 0.00 94 1039.3
20230208012043 25 0 0.0 0.0 0.00 0.00 0.00 94 1039.2
20230208011554 25 0 0.0 0.0 0.00 0.00 0.00 94 1039.3
20230208011046 25 0 0.0 0.0 0.00 0.00 0.00 93 1039.3
20230208010548 25 0 0.0 0.0 0.00 0.00 0.00 93 1039.5
20230208010112 25 0 0.0 0.0 0.00 0.00 0.00 93 1039.4
20230208005545 26 0 0.0 0.0 0.00 0.00 0.00 94 1039.5
20230208005045 26 0 0.0 0.0 0.00 0.00 0.00 94 1039.6
20230208004555 26 0 0.0 0.0 0.00 0.00 0.00 94 1039.5
20230208004045 26 0 0.0 0.0 0.00 0.00 0.00 94 1039.6
20230208003548 26 0 0.0 0.0 0.00 0.00 0.00 93 1039.6
20230208003051 26 0 0.0 0.0 0.00 0.00 0.00 93 1039.7
20230208002545 26 0 0.0 0.0 0.00 0.00 0.00 93 1039.6
20230208002047 26 0 0.0 0.0 0.00 0.00 0.00 93 1039.6
20230208001605 26 0 0.0 0.0 0.00 0.00 0.00 93 1039.6
20230208001044 26 0 0.0 0.0 0.00 0.00 0.00 93 1039.4
20230208000547 26 0 0.0 0.0 0.00 0.00 0.00 93 1039.5
20230208000100 26 0 0.0 0.0 0.00 0.00 0.00 94 1039.6
20230207235547 26 0 0.0 0.0 0.00 0.00 0.00 93 1039.6
20230207235045 26 0 0.0 0.0 0.00 0.00 0.00 93 1039.7
20230207234558 27 0 0.0 0.0 0.00 0.00 0.00 94 1039.6
20230207234046 26 0 0.0 0.0 0.00 0.00 0.00 93 1039.7
20230207233545 26 0 0.0 0.0 0.00 0.00 0.00 93 1039.7
20230207233058 26 0 0.0 0.0 0.00 0.00 0.00 93 1039.7
20230207232544 26 0 0.0 0.0 0.00 0.00 0.00 93 1039.7
20230207232045 26 0 0.0 0.0 0.00 0.00 0.00 93 1039.6
20230207231600 26 0 0.0 0.0 0.00 0.00 0.00 93 1039.6
20230207231044 26 0 0.0 0.0 0.00 0.00 0.00 93 1039.6
20230207230544 26 0 0.0 0.0 0.00 0.00 0.00 93 1039.5
20230207230108 27 0 0.0 0.0 0.00 0.00 0.00 93 1039.6
20230207225545 26 0 0.0 0.0 0.00 0.00 0.00 93 1039.5
20230207225043 26 0 0.0 0.0 0.00 0.00 0.00 93 1039.6
20230207224600 27 0 0.0 0.0 0.00 0.00 0.00 93 1039.6
20230207224048 27 0 0.0 0.0 0.00 0.00 0.00 93 1039.5
20230207223545 27 0 0.0 0.0 0.00 0.00 0.00 93 1039.6
20230207223055 27 0 0.0 0.0 0.00 0.00 0.00 92 1039.5
20230207222545 27 0 0.0 0.0 0.00 0.00 0.00 92 1039.6
20230207222046 27 0 0.0 0.0 0.00 0.00 0.00 92 1039.7
20230207221558 27 0 0.0 0.0 0.00 0.00 0.00 92 1039.6
20230207221049 27 0 0.0 0.0 0.00 0.00 0.00 92 1039.6
20230207220546 28 0 0.0 0.0 0.00 0.00 0.00 93 1039.7
20230207220122 28 0 0.0 0.0 0.00 0.00 0.00 93 1039.7
20230207215545 27 0 0.0 0.0 0.00 0.00 0.00 93 1039.7
20230207215045 27 0 0.0 0.0 0.00 0.00 0.00 93 1039.7
20230207214553 27 0 0.0 0.0 0.00 0.00 0.00 93 1039.6
20230207214047 27 0 0.0 0.0 0.00 0.00 0.00 93 1039.6
20230207213547 27 0 0.0 0.0 0.00 0.00 0.00 93 1039.7
20230207213105 27 0 0.0 0.0 0.00 0.00 0.00 93 1039.7
20230207212543 27 0 0.0 0.0 0.00 0.00 0.00 93 1039.9
20230207212045 27 0 0.0 0.0 0.00 0.00 0.00 92 1039.8
20230207211558 27 0 0.0 0.0 0.00 0.00 0.00 92 1039.8
20230207211042 27 0 0.0 0.0 0.00 0.00 0.00 92 1039.8
20230207210542 27 0 0.0 0.0 0.00 0.00 0.00 92 1039.9
20230207210108 27 0 0.0 0.0 0.00 0.00 0.00 92 1040.0
20230207205543 27 0 0.0 0.0 0.00 0.00 0.00 92 1039.8
20230207205042 28 0 0.0 0.0 0.00 0.00 0.00 92 1039.8
20230207204559 28 0 0.0 0.0 0.00 0.00 0.00 92 1039.7
20230207204043 28 0 0.0 0.0 0.00 0.00 0.00 92 1039.6
20230207203542 28 0 0.0 0.0 0.00 0.00 0.00 91 1039.7
20230207203056 28 0 0.0 0.0 0.00 0.00 0.00 91 1039.7
20230207202542 28 0 0.0 0.0 0.00 0.00 0.00 92 1039.6
20230207202042 28 0 0.0 0.0 0.00 0.00 0.00 92 1039.6
20230207201553 28 0 0.0 0.0 0.00 0.00 0.00 92 1039.7
20230207201042 28 0 0.0 0.0 0.00 0.00 0.00 91 1039.7
20230207200543 28 0 0.0 0.0 0.00 0.00 0.00 91 1039.7
20230207200055 28 0 0.0 0.0 0.00 0.00 0.00 91 1039.6
20230207195542 28 0 0.0 0.0 0.00 0.00 0.00 91 1039.6
20230207195042 28 0 0.0 0.0 0.00 0.00 0.00 91 1039.6
20230207194601 28 0 0.0 0.0 0.00 0.00 0.00 91 1039.5
20230207194042 28 0 0.0 0.0 0.00 0.00 0.00 91 1039.4
20230207193544 28 0 0.0 0.0 0.00 0.00 0.00 91 1039.5
20230207193106 28 0 0.0 0.0 0.00 0.00 0.00 90 1039.6
20230207192545 28 0 0.0 0.0 0.00 0.00 0.00 90 1039.5
20230207192045 28 0 0.0 0.0 0.00 0.00 0.00 90 1039.6
20230207191556 28 0 0.0 0.0 0.00 0.00 0.00 90 1039.6
20230207191045 29 0 0.0 0.0 0.00 0.00 0.00 90 1039.6
20230207190545 29 0 0.0 0.0 0.00 0.00 0.00 90 1039.6
20230207190101 29 0 0.0 0.0 0.00 0.00 0.00 90 1039.8
20230207185544 29 0 0.0 0.0 0.00 0.00 0.00 89 1039.7
20230207185044 29 0 0.0 0.0 0.00 0.00 0.00 89 1039.7
20230207184556 29 0 0.0 0.0 0.00 0.00 0.00 89 1039.7
20230207184043 29 0 0.0 0.0 0.00 0.00 0.00 89 1039.6
20230207183541 29 0 0.0 0.0 0.00 0.00 0.00 89 1039.7
20230207183055 29 0 0.0 0.0 0.00 0.00 0.00 88 1039.6
20230207182544 29 0 0.0 0.0 0.00 0.00 0.00 88 1039.6
20230207182044 29 0 0.0 0.0 0.00 0.00 0.00 88 1039.6
20230207181559 29 0 0.0 0.0 0.00 0.00 0.00 88 1039.6
20230207181044 29 0 0.0 0.0 0.00 0.00 0.00 88 1039.6
20230207180545 29 0 0.0 0.0 0.00 0.00 0.00 87 1039.7
20230207180135 30 0 0.0 0.0 0.00 0.00 0.00 87 1039.8
20230207175543 30 0 0.0 0.0 0.00 0.00 0.00 87 1039.7
20230207175043 30 0 0.0 0.0 0.00 0.00 0.00 86 1039.7
20230207174602 30 0 0.0 0.0 0.00 0.00 0.00 86 1039.8
20230207174044 31 0 0.0 0.0 0.00 0.00 0.00 86 1039.8
20230207173544 31 0 0.0 0.0 0.00 0.00 0.00 85 1039.9
20230207173059 31 0 0.0 0.0 0.00 0.00 0.00 85 1039.9
20230207172544 31 0 0.0 0.0 0.00 0.00 0.00 84 1039.8
20230207172041 31 0 0.0 0.0 0.00 0.00 0.00 84 1039.8
20230207171557 32 0 0.0 0.0 0.00 0.00 0.00 83 1039.7
20230207171042 32 0 0.0 0.0 0.00 0.00 0.00 82 1039.7
20230207170544 32 0 0.0 0.0 0.00 0.00 0.00 81 1039.7
20230207170112 33 0 0.0 0.0 0.00 0.00 0.00 79 1039.7
20230207165544 33 0 0.0 0.0 0.00 0.00 0.00 78 1039.7